Year,Month,Day,Hour,Minute,Value (Times are PST for temperature in C)
2006,08,18,00,00,12.20
2006,08,18,00,01,12.20
2006,08,18,00,02,12.20
2006,08,18,00,03,12.20
2006,08,18,00,04,12.10
2006,08,18,00,05,12.10
2006,08,18,00,06,12.10
2006,08,18,00,07,12.10
2006,08,18,00,08,12.10
2006,08,18,00,09,12.10
2006,08,18,00,10,12.10
2006,08,18,00,11,12.10
2006,08,18,00,12,12.10
2006,08,18,00,13,12.10
2006,08,18,00,14,12.10
2006,08,18,00,15,12.10
2006,08,18,00,16,12.10
2006,08,18,00,17,12.10
2006,08,18,00,18,12.10
2006,08,18,00,19,12.10
2006,08,18,00,20,12.10
2006,08,18,00,21,12.10
2006,08,18,00,22,12.10
2006,08,18,00,23,12.10
2006,08,18,00,24,12.10
2006,08,18,00,25,12.10
2006,08,18,00,26,12.10
2006,08,18,00,27,12.10
2006,08,18,00,28,12.10
2006,08,18,00,29,12.10
2006,08,18,00,30,12.10
2006,08,18,00,31,12.10
2006,08,18,00,32,12.10
2006,08,18,00,33,12.10
2006,08,18,00,34,12.10
2006,08,18,00,35,12.10
2006,08,18,00,36,12.10
2006,08,18,00,37,12.10
2006,08,18,00,38,12.10
2006,08,18,00,39,12.10
2006,08,18,00,40,12.10
2006,08,18,00,41,12.10
2006,08,18,00,42,12.10
2006,08,18,00,43,12.10
2006,08,18,00,44,12.10
2006,08,18,00,45,12.10
2006,08,18,00,46,12.10
2006,08,18,00,47,12.10
2006,08,18,00,48,12.10
2006,08,18,00,49,12.10
2006,08,18,00,50,12.10
2006,08,18,00,51,12.20
2006,08,18,00,52,12.20
2006,08,18,00,53,12.20
2006,08,18,00,54,12.20
2006,08,18,00,55,12.20
2006,08,18,00,56,12.10
2006,08,18,00,57,12.10
2006,08,18,00,58,12.10
2006,08,18,00,59,12.10
2006,08,18,01,00,12.10
2006,08,18,01,01,12.00
2006,08,18,01,02,12.00
2006,08,18,01,03,12.00
2006,08,18,01,04,11.90
2006,08,18,01,05,11.90
2006,08,18,01,06,11.90
2006,08,18,01,07,11.90
2006,08,18,01,08,11.80
2006,08,18,01,09,11.80
2006,08,18,01,10,11.80
2006,08,18,01,11,11.80
2006,08,18,01,12,11.80
2006,08,18,01,13,11.80
2006,08,18,01,14,11.80
2006,08,18,01,15,11.80
2006,08,18,01,16,11.80
2006,08,18,01,17,11.80
2006,08,18,01,18,11.80
2006,08,18,01,19,11.80
2006,08,18,01,20,11.80
2006,08,18,01,21,11.70
2006,08,18,01,22,11.70
2006,08,18,01,23,11.70
2006,08,18,01,24,11.70
2006,08,18,01,25,11.70
2006,08,18,01,26,11.70
2006,08,18,01,27,11.70
2006,08,18,01,28,11.80
2006,08,18,01,29,11.80
2006,08,18,01,30,11.80
2006,08,18,01,31,11.80
2006,08,18,01,32,11.80
2006,08,18,01,33,11.80
2006,08,18,01,34,11.70
2006,08,18,01,35,11.80
2006,08,18,01,36,11.70
2006,08,18,01,37,11.70
2006,08,18,01,38,11.70
2006,08,18,01,39,11.70
2006,08,18,01,40,11.70
2006,08,18,01,41,11.70
2006,08,18,01,42,11.70
2006,08,18,01,43,11.70
2006,08,18,01,44,11.60
2006,08,18,01,45,11.60
2006,08,18,01,46,11.60
2006,08,18,01,47,11.60
2006,08,18,01,48,11.60
2006,08,18,01,49,11.60
2006,08,18,01,50,11.50
2006,08,18,01,51,11.50
2006,08,18,01,52,11.50
2006,08,18,01,53,11.40
2006,08,18,01,54,11.40
2006,08,18,01,55,11.40
2006,08,18,01,56,11.40
2006,08,18,01,57,11.40
2006,08,18,01,58,11.40
2006,08,18,01,59,11.40
2006,08,18,02,00,11.40
2006,08,18,02,01,11.40
2006,08,18,02,02,11.40
2006,08,18,02,03,11.30
2006,08,18,02,04,11.30
2006,08,18,02,05,11.30
2006,08,18,02,06,11.30
2006,08,18,02,07,11.30
2006,08,18,02,08,11.30
2006,08,18,02,09,11.30
2006,08,18,02,10,11.30
2006,08,18,02,11,11.30
2006,08,18,02,12,11.30
2006,08,18,02,13,11.30
2006,08,18,02,14,11.30
2006,08,18,02,15,11.30
2006,08,18,02,16,11.20
2006,08,18,02,17,11.20
2006,08,18,02,18,11.20
2006,08,18,02,19,11.20
2006,08,18,02,20,11.20
2006,08,18,02,21,11.20
2006,08,18,02,22,11.20
2006,08,18,02,23,11.20
2006,08,18,02,24,11.20
2006,08,18,02,25,11.20
2006,08,18,02,26,11.20
2006,08,18,02,27,11.20
2006,08,18,02,28,11.20
2006,08,18,02,29,11.20
2006,08,18,02,30,11.10
2006,08,18,02,31,11.10
2006,08,18,02,32,11.10
2006,08,18,02,33,11.10
2006,08,18,02,34,11.10
2006,08,18,02,35,11.10
2006,08,18,02,36,11.10
2006,08,18,02,37,11.10
2006,08,18,02,38,11.10
2006,08,18,02,39,11.10
2006,08,18,02,40,11.10
2006,08,18,02,41,11.10
2006,08,18,02,42,11.10
2006,08,18,02,43,11.10
2006,08,18,02,44,11.10
2006,08,18,02,45,11.10
2006,08,18,02,46,11.10
2006,08,18,02,47,11.10
2006,08,18,02,48,11.00
2006,08,18,02,49,11.10
2006,08,18,02,50,11.10
2006,08,18,02,51,11.00
2006,08,18,02,52,11.00
2006,08,18,02,53,11.00
2006,08,18,02,54,11.00
2006,08,18,02,55,11.00
2006,08,18,02,56,11.00
2006,08,18,02,57,11.00
2006,08,18,02,58,11.00
2006,08,18,02,59,11.00
2006,08,18,03,00,11.00
2006,08,18,03,01,11.00
2006,08,18,03,02,11.00
2006,08,18,03,03,10.90
2006,08,18,03,04,10.90
2006,08,18,03,05,10.90
2006,08,18,03,06,10.90
2006,08,18,03,07,10.90
2006,08,18,03,08,10.80
2006,08,18,03,09,10.80
2006,08,18,03,10,10.80
2006,08,18,03,11,10.80
2006,08,18,03,12,10.80
2006,08,18,03,13,10.80
2006,08,18,03,14,10.80
2006,08,18,03,15,10.70
2006,08,18,03,16,10.70
2006,08,18,03,17,10.70
2006,08,18,03,18,10.70
2006,08,18,03,19,10.70
2006,08,18,03,20,10.70
2006,08,18,03,21,10.70
2006,08,18,03,22,10.60
2006,08,18,03,23,10.60
2006,08,18,03,24,10.60
2006,08,18,03,25,10.60
2006,08,18,03,26,10.60
2006,08,18,03,27,10.60
2006,08,18,03,28,10.60
2006,08,18,03,29,10.60
2006,08,18,03,30,10.60
2006,08,18,03,31,10.50
2006,08,18,03,32,10.50
2006,08,18,03,33,10.50
2006,08,18,03,34,10.50
2006,08,18,03,35,10.40
2006,08,18,03,36,10.40
2006,08,18,03,37,10.40
2006,08,18,03,38,10.40
2006,08,18,03,39,10.40
2006,08,18,03,40,10.40
2006,08,18,03,41,10.30
2006,08,18,03,42,10.30
2006,08,18,03,43,10.30
2006,08,18,03,44,10.30
2006,08,18,03,45,10.30
2006,08,18,03,46,10.30
2006,08,18,03,47,10.30
2006,08,18,03,48,10.30
2006,08,18,03,49,10.30
2006,08,18,03,50,10.20
2006,08,18,03,51,10.20
2006,08,18,03,52,10.20
2006,08,18,03,53,10.20
2006,08,18,03,54,10.20
2006,08,18,03,55,10.20
2006,08,18,03,56,10.20
2006,08,18,03,57,10.20
2006,08,18,03,58,10.10
2006,08,18,03,59,10.10
2006,08,18,04,00,10.10
2006,08,18,04,01,10.10
2006,08,18,04,02,10.10
2006,08,18,04,03,10.10
2006,08,18,04,04,10.10
2006,08,18,04,05,10.10
2006,08,18,04,06,10.10
2006,08,18,04,07,10.10
2006,08,18,04,08,10.10
2006,08,18,04,09,10.10
2006,08,18,04,10,10.10
2006,08,18,04,11,10.10
2006,08,18,04,12,10.10
2006,08,18,04,13,10.10
2006,08,18,04,14,10.10
2006,08,18,04,15,10.10
2006,08,18,04,16,10.10
2006,08,18,04,17,10.10
2006,08,18,04,18,10.10
2006,08,18,04,19,10.10
2006,08,18,04,20,10.10
2006,08,18,04,21,10.00
2006,08,18,04,22,10.00
2006,08,18,04,23,10.00
2006,08,18,04,24,9.90
2006,08,18,04,25,9.90
2006,08,18,04,26,9.90
2006,08,18,04,27,9.90
2006,08,18,04,28,9.90
2006,08,18,04,29,9.90
2006,08,18,04,30,9.90
2006,08,18,04,31,9.90
2006,08,18,04,32,9.90
2006,08,18,04,33,9.90
2006,08,18,04,34,9.90
2006,08,18,04,35,9.90
2006,08,18,04,36,9.90
2006,08,18,04,37,9.90
2006,08,18,04,38,9.90
2006,08,18,04,39,9.90
2006,08,18,04,40,9.90
2006,08,18,04,41,9.90
2006,08,18,04,42,9.90
2006,08,18,04,43,9.90
2006,08,18,04,44,9.90
2006,08,18,04,45,9.90
2006,08,18,04,46,9.90
2006,08,18,04,47,9.90
2006,08,18,04,48,9.90
2006,08,18,04,49,9.90
2006,08,18,04,50,9.90
2006,08,18,04,51,9.90
2006,08,18,04,52,9.90
2006,08,18,04,53,9.90
2006,08,18,04,54,9.80
2006,08,18,04,55,9.80
2006,08,18,04,56,9.80
2006,08,18,04,57,9.80
2006,08,18,04,58,9.80
2006,08,18,04,59,9.80
2006,08,18,05,00,9.80
2006,08,18,05,01,9.80
2006,08,18,05,02,9.80
2006,08,18,05,03,9.80
2006,08,18,05,04,9.80
2006,08,18,05,05,9.80
2006,08,18,05,06,9.80
2006,08,18,05,07,9.80
2006,08,18,05,08,9.70
2006,08,18,05,09,9.70
2006,08,18,05,10,9.70
2006,08,18,05,11,9.70
2006,08,18,05,12,9.70
2006,08,18,05,13,9.70
2006,08,18,05,14,9.60
2006,08,18,05,15,9.60
2006,08,18,05,16,9.60
2006,08,18,05,17,9.60
2006,08,18,05,18,9.60
2006,08,18,05,19,9.60
2006,08,18,05,20,9.60
2006,08,18,05,21,9.60
2006,08,18,05,22,9.50
2006,08,18,05,23,9.50
2006,08,18,05,24,9.50
2006,08,18,05,25,9.50
2006,08,18,05,26,9.50
2006,08,18,05,27,9.40
2006,08,18,05,28,9.40
2006,08,18,05,29,9.40
2006,08,18,05,30,9.40
2006,08,18,05,31,9.40
2006,08,18,05,32,9.40
2006,08,18,05,33,9.40
2006,08,18,05,34,9.40
2006,08,18,05,35,9.40
2006,08,18,05,36,9.40
2006,08,18,05,37,9.30
2006,08,18,05,38,9.30
2006,08,18,05,39,9.30
2006,08,18,05,40,9.30
2006,08,18,05,41,9.30
2006,08,18,05,42,9.30
2006,08,18,05,43,9.30
2006,08,18,05,44,9.30
2006,08,18,05,45,9.30
2006,08,18,05,46,9.20
2006,08,18,05,47,9.20
2006,08,18,05,48,9.20
2006,08,18,05,49,9.20
2006,08,18,05,50,9.20
2006,08,18,05,51,9.20
2006,08,18,05,52,9.20
2006,08,18,05,53,9.20
2006,08,18,05,54,9.20
2006,08,18,05,55,9.20
2006,08,18,05,56,9.20
2006,08,18,05,57,9.30
2006,08,18,05,58,9.30
2006,08,18,05,59,9.30
2006,08,18,06,00,9.30
2006,08,18,06,01,9.30
2006,08,18,06,02,9.30
2006,08,18,06,03,9.20
2006,08,18,06,04,9.20
2006,08,18,06,05,9.20
2006,08,18,06,06,9.20
2006,08,18,06,07,9.20
2006,08,18,06,08,9.20
2006,08,18,06,09,9.20
2006,08,18,06,10,9.20
2006,08,18,06,11,9.20
2006,08,18,06,12,9.20
2006,08,18,06,13,9.20
2006,08,18,06,14,9.20
2006,08,18,06,15,9.20
2006,08,18,06,16,9.20
2006,08,18,06,17,9.20
2006,08,18,06,18,9.20
2006,08,18,06,19,9.20
2006,08,18,06,20,9.20
2006,08,18,06,21,9.20
2006,08,18,06,22,9.20
2006,08,18,06,23,9.30
2006,08,18,06,24,9.30
2006,08,18,06,25,9.30
2006,08,18,06,26,9.30
2006,08,18,06,27,9.30
2006,08,18,06,28,9.30
2006,08,18,06,29,9.30
2006,08,18,06,30,9.30
2006,08,18,06,31,9.30
2006,08,18,06,32,9.30
2006,08,18,06,33,9.40
2006,08,18,06,34,9.40
2006,08,18,06,35,9.40
2006,08,18,06,36,9.40
2006,08,18,06,37,9.40
2006,08,18,06,38,9.40
2006,08,18,06,39,9.40
2006,08,18,06,40,9.40
2006,08,18,06,41,9.40
2006,08,18,06,42,9.40
2006,08,18,06,43,9.40
2006,08,18,06,44,9.40
2006,08,18,06,45,9.40
2006,08,18,06,46,9.50
2006,08,18,06,47,9.50
2006,08,18,06,48,9.50
2006,08,18,06,49,9.50
2006,08,18,06,50,9.50
2006,08,18,06,51,9.50
2006,08,18,06,52,9.60
2006,08,18,06,53,9.60
2006,08,18,06,54,9.60
2006,08,18,06,55,9.60
2006,08,18,06,56,9.70
2006,08,18,06,57,9.70
2006,08,18,06,58,9.80
2006,08,18,06,59,9.80
2006,08,18,07,00,9.90
2006,08,18,07,01,9.90
2006,08,18,07,02,9.90
2006,08,18,07,03,10.00
2006,08,18,07,04,10.00
2006,08,18,07,05,10.00
2006,08,18,07,06,10.10
2006,08,18,07,07,10.10
2006,08,18,07,08,10.10
2006,08,18,07,09,10.20
2006,08,18,07,10,10.20
2006,08,18,07,11,10.20
2006,08,18,07,12,10.30
2006,08,18,07,13,10.30
2006,08,18,07,14,10.40
2006,08,18,07,15,10.50
2006,08,18,07,16,10.50
2006,08,18,07,17,10.60
2006,08,18,07,18,10.70
2006,08,18,07,19,10.80
2006,08,18,07,20,10.90
2006,08,18,07,21,11.00
2006,08,18,07,22,11.10
2006,08,18,07,23,11.20
2006,08,18,07,24,11.20
2006,08,18,07,25,11.30
2006,08,18,07,26,11.40
2006,08,18,07,27,11.60
2006,08,18,07,28,11.70
2006,08,18,07,29,11.80
2006,08,18,07,30,11.90
2006,08,18,07,31,12.00
2006,08,18,07,32,12.10
2006,08,18,07,33,12.30
2006,08,18,07,34,12.40
2006,08,18,07,35,12.50
2006,08,18,07,36,12.60
2006,08,18,07,37,12.80
2006,08,18,07,38,12.80
2006,08,18,07,39,13.00
2006,08,18,07,40,13.10
2006,08,18,07,41,13.20
2006,08,18,07,42,13.30
2006,08,18,07,43,13.40
2006,08,18,07,44,13.50
2006,08,18,07,45,13.60
2006,08,18,07,46,13.70
2006,08,18,07,47,13.80
2006,08,18,07,48,14.00
2006,08,18,07,49,14.20
2006,08,18,07,50,14.30
2006,08,18,07,51,14.40
2006,08,18,07,52,14.60
2006,08,18,07,53,14.70
2006,08,18,07,54,14.80
2006,08,18,07,55,14.90
2006,08,18,07,56,15.00
2006,08,18,07,57,15.00
2006,08,18,07,58,15.00
2006,08,18,07,59,15.10
2006,08,18,08,00,15.20
2006,08,18,08,01,15.30
2006,08,18,08,02,15.40
2006,08,18,08,03,15.40
2006,08,18,08,04,15.50
2006,08,18,08,05,15.50
2006,08,18,08,06,15.60
2006,08,18,08,07,15.60
2006,08,18,08,08,15.60
2006,08,18,08,09,15.60
2006,08,18,08,10,15.70
2006,08,18,08,11,15.70
2006,08,18,08,12,15.70
2006,08,18,08,13,15.70
2006,08,18,08,14,15.80
2006,08,18,08,15,15.80
2006,08,18,08,16,15.80
2006,08,18,08,17,15.80
2006,08,18,08,18,15.80
2006,08,18,08,19,15.80
2006,08,18,08,20,15.80
2006,08,18,08,21,15.80
2006,08,18,08,22,15.80
2006,08,18,08,23,15.80
2006,08,18,08,24,15.80
2006,08,18,08,25,15.90
2006,08,18,08,26,16.00
2006,08,18,08,27,16.10
2006,08,18,08,28,16.10
2006,08,18,08,29,16.20
2006,08,18,08,30,16.20
2006,08,18,08,31,16.10
2006,08,18,08,32,16.00
2006,08,18,08,33,16.00
2006,08,18,08,34,15.90
2006,08,18,08,35,15.90
2006,08,18,08,36,15.90
2006,08,18,08,37,15.90
2006,08,18,08,38,16.00
2006,08,18,08,39,16.00
2006,08,18,08,40,16.00
2006,08,18,08,41,16.10
2006,08,18,08,42,16.20
2006,08,18,08,43,16.30
2006,08,18,08,44,16.40
2006,08,18,08,45,16.50
2006,08,18,08,46,16.60
2006,08,18,08,47,16.60
2006,08,18,08,48,16.60
2006,08,18,08,49,16.50
2006,08,18,08,50,16.50
2006,08,18,08,51,16.40
2006,08,18,08,52,16.30
2006,08,18,08,53,16.30
2006,08,18,08,54,16.40
2006,08,18,08,55,16.40
2006,08,18,08,56,16.60
2006,08,18,08,57,16.70
2006,08,18,08,58,16.70
2006,08,18,08,59,16.80
2006,08,18,09,00,16.80
2006,08,18,09,01,16.70
2006,08,18,09,02,16.70
2006,08,18,09,03,16.70
2006,08,18,09,04,16.70
2006,08,18,09,05,16.60
2006,08,18,09,06,16.60
2006,08,18,09,07,16.70
2006,08,18,09,08,16.70
2006,08,18,09,09,16.80
2006,08,18,09,10,16.90
2006,08,18,09,11,16.90
2006,08,18,09,12,16.90
2006,08,18,09,13,16.90
2006,08,18,09,14,17.00
2006,08,18,09,15,17.10
2006,08,18,09,16,17.20
2006,08,18,09,17,17.30
2006,08,18,09,18,17.30
2006,08,18,09,19,17.40
2006,08,18,09,20,17.50
2006,08,18,09,21,17.60
2006,08,18,09,22,17.70
2006,08,18,09,23,17.80
2006,08,18,09,24,17.80
2006,08,18,09,25,17.80
2006,08,18,09,26,17.90
2006,08,18,09,27,17.80
2006,08,18,09,28,17.80
2006,08,18,09,29,17.90
2006,08,18,09,30,17.80
2006,08,18,09,31,17.80
2006,08,18,09,32,17.80
2006,08,18,09,33,17.80
2006,08,18,09,34,17.80
2006,08,18,09,35,17.80
2006,08,18,09,36,17.70
2006,08,18,09,37,17.60
2006,08,18,09,38,17.50
2006,08,18,09,39,17.50
2006,08,18,09,40,17.40
2006,08,18,09,41,17.40
2006,08,18,09,42,17.50
2006,08,18,09,43,17.50
2006,08,18,09,44,17.50
2006,08,18,09,45,17.50
2006,08,18,09,46,17.50
2006,08,18,09,47,17.50
2006,08,18,09,48,17.60
2006,08,18,09,49,17.60
2006,08,18,09,50,17.70
2006,08,18,09,51,17.80
2006,08,18,09,52,17.80
2006,08,18,09,53,17.90
2006,08,18,09,54,17.90
2006,08,18,09,55,17.90
2006,08,18,09,56,18.10
2006,08,18,09,57,18.20
2006,08,18,09,58,18.20
2006,08,18,09,59,18.30
2006,08,18,10,00,18.30
2006,08,18,10,01,18.40
2006,08,18,10,02,18.50
2006,08,18,10,03,18.50
2006,08,18,10,04,18.50
2006,08,18,10,05,18.50
2006,08,18,10,06,18.60
2006,08,18,10,07,18.70
2006,08,18,10,08,18.80
2006,08,18,10,09,18.80
2006,08,18,10,10,18.80
2006,08,18,10,11,18.80
2006,08,18,10,12,18.80
2006,08,18,10,13,18.90
2006,08,18,10,14,18.90
2006,08,18,10,15,19.00
2006,08,18,10,16,19.10
2006,08,18,10,17,19.10
2006,08,18,10,18,19.10
2006,08,18,10,19,19.00
2006,08,18,10,20,19.00
2006,08,18,10,21,18.90
2006,08,18,10,22,18.90
2006,08,18,10,23,18.90
2006,08,18,10,24,18.90
2006,08,18,10,25,18.90
2006,08,18,10,26,18.90
2006,08,18,10,27,18.90
2006,08,18,10,28,18.90
2006,08,18,10,29,18.90
2006,08,18,10,30,18.90
2006,08,18,10,31,18.80
2006,08,18,10,32,18.80
2006,08,18,10,33,18.90
2006,08,18,10,34,18.90
2006,08,18,10,35,18.90
2006,08,18,10,36,18.90
2006,08,18,10,37,19.00
2006,08,18,10,38,19.10
2006,08,18,10,39,19.20
2006,08,18,10,40,19.30
2006,08,18,10,41,19.30
2006,08,18,10,42,19.20
2006,08,18,10,43,19.10
2006,08,18,10,44,19.10
2006,08,18,10,45,19.10
2006,08,18,10,46,19.10
2006,08,18,10,47,19.10
2006,08,18,10,48,19.10
2006,08,18,10,49,19.20
2006,08,18,10,50,19.10
2006,08,18,10,51,19.10
2006,08,18,10,52,19.10
2006,08,18,10,53,19.20
2006,08,18,10,54,19.30
2006,08,18,10,55,19.40
2006,08,18,10,56,19.50
2006,08,18,10,57,19.60
2006,08,18,10,58,19.70
2006,08,18,10,59,19.70
2006,08,18,11,00,19.70
2006,08,18,11,01,19.70
2006,08,18,11,02,19.50
2006,08,18,11,03,19.40
2006,08,18,11,04,19.40
2006,08,18,11,05,19.40
2006,08,18,11,06,19.50
2006,08,18,11,07,19.50
2006,08,18,11,08,19.50
2006,08,18,11,09,19.60
2006,08,18,11,10,19.60
2006,08,18,11,11,19.60
2006,08,18,11,12,19.60
2006,08,18,11,13,19.70
2006,08,18,11,14,19.70
2006,08,18,11,15,19.70
2006,08,18,11,16,19.80
2006,08,18,11,17,19.90
2006,08,18,11,18,20.00
2006,08,18,11,19,20.00
2006,08,18,11,20,20.00
2006,08,18,11,21,20.00
2006,08,18,11,22,19.90
2006,08,18,11,23,19.80
2006,08,18,11,24,19.80
2006,08,18,11,25,19.90
2006,08,18,11,26,19.90
2006,08,18,11,27,19.90
2006,08,18,11,28,19.90
2006,08,18,11,29,19.80
2006,08,18,11,30,19.80
2006,08,18,11,31,19.80
2006,08,18,11,32,19.80
2006,08,18,11,33,19.80
2006,08,18,11,34,19.90
2006,08,18,11,35,20.00
2006,08,18,11,36,20.10
2006,08,18,11,37,20.30
2006,08,18,11,38,20.30
2006,08,18,11,39,20.10
2006,08,18,11,40,20.00
2006,08,18,11,41,19.90
2006,08,18,11,42,19.80
2006,08,18,11,43,19.70
2006,08,18,11,44,19.80
2006,08,18,11,45,19.90
2006,08,18,11,46,19.90
2006,08,18,11,47,19.80
2006,08,18,11,48,19.70
2006,08,18,11,49,19.60
2006,08,18,11,50,19.70
2006,08,18,11,51,19.80
2006,08,18,11,52,19.80
2006,08,18,11,53,19.80
2006,08,18,11,54,19.80
2006,08,18,11,55,20.00
2006,08,18,11,56,20.20
2006,08,18,11,57,20.20
2006,08,18,11,58,20.30
2006,08,18,11,59,20.50
2006,08,18,12,00,20.60
2006,08,18,12,01,20.70
2006,08,18,12,02,20.70
2006,08,18,12,03,20.70
2006,08,18,12,04,20.80
2006,08,18,12,05,20.90
2006,08,18,12,06,20.90
2006,08,18,12,07,21.00
2006,08,18,12,08,21.00
2006,08,18,12,09,21.00
2006,08,18,12,10,21.10
2006,08,18,12,11,21.10
2006,08,18,12,12,21.10
2006,08,18,12,13,21.00
2006,08,18,12,14,21.00
2006,08,18,12,15,20.90
2006,08,18,12,16,21.00
2006,08,18,12,17,21.00
2006,08,18,12,18,21.10
2006,08,18,12,19,21.20
2006,08,18,12,20,21.30
2006,08,18,12,21,21.30
2006,08,18,12,22,21.30
2006,08,18,12,23,21.30
2006,08,18,12,24,21.30
2006,08,18,12,25,21.30
2006,08,18,12,26,21.40
2006,08,18,12,27,21.40
2006,08,18,12,28,21.50
2006,08,18,12,29,21.60
2006,08,18,12,30,21.70
2006,08,18,12,31,21.70
2006,08,18,12,32,21.60
2006,08,18,12,33,21.40
2006,08,18,12,34,21.20
2006,08,18,12,35,21.00
2006,08,18,12,36,20.90
2006,08,18,12,37,20.90
2006,08,18,12,38,20.90
2006,08,18,12,39,20.90
2006,08,18,12,40,20.90
2006,08,18,12,41,20.80
2006,08,18,12,42,20.90
2006,08,18,12,43,21.00
2006,08,18,12,44,21.20
2006,08,18,12,45,21.30
2006,08,18,12,46,21.20
2006,08,18,12,47,21.10
2006,08,18,12,48,21.10
2006,08,18,12,49,20.90
2006,08,18,12,50,20.70
2006,08,18,12,51,20.60
2006,08,18,12,52,20.60
2006,08,18,12,53,20.70
2006,08,18,12,54,20.70
2006,08,18,12,55,20.70
2006,08,18,12,56,20.80
2006,08,18,12,57,20.80
2006,08,18,12,58,20.80
2006,08,18,12,59,20.80
2006,08,18,13,00,20.80
2006,08,18,13,01,20.80
2006,08,18,13,02,20.80
2006,08,18,13,03,20.80
2006,08,18,13,04,20.80
2006,08,18,13,05,20.80
2006,08,18,13,06,20.80
2006,08,18,13,07,20.80
2006,08,18,13,08,21.00
2006,08,18,13,09,21.10
2006,08,18,13,10,21.10
2006,08,18,13,11,21.10
2006,08,18,13,12,21.20
2006,08,18,13,13,21.20
2006,08,18,13,14,21.30
2006,08,18,13,15,21.30
2006,08,18,13,16,21.40
2006,08,18,13,17,21.30
2006,08,18,13,18,21.20
2006,08,18,13,19,21.10
2006,08,18,13,20,21.10
2006,08,18,13,21,21.20
2006,08,18,13,22,21.20
2006,08,18,13,23,21.20
2006,08,18,13,24,21.20
2006,08,18,13,25,21.20
2006,08,18,13,26,21.20
2006,08,18,13,27,21.20
2006,08,18,13,28,21.10
2006,08,18,13,29,21.00
2006,08,18,13,30,21.00
2006,08,18,13,31,21.00
2006,08,18,13,32,21.10
2006,08,18,13,33,21.20
2006,08,18,13,34,21.30
2006,08,18,13,35,21.30
2006,08,18,13,36,21.30
2006,08,18,13,37,21.30
2006,08,18,13,38,21.30
2006,08,18,13,39,21.40
2006,08,18,13,40,21.50
2006,08,18,13,41,21.60
2006,08,18,13,42,21.70
2006,08,18,13,43,21.70
2006,08,18,13,44,21.80
2006,08,18,13,45,21.90
2006,08,18,13,46,21.90
2006,08,18,13,47,21.80
2006,08,18,13,48,21.60
2006,08,18,13,49,21.60
2006,08,18,13,50,21.60
2006,08,18,13,51,21.60
2006,08,18,13,52,21.60
2006,08,18,13,53,21.60
2006,08,18,13,54,21.80
2006,08,18,13,55,21.80
2006,08,18,13,56,21.80
2006,08,18,13,57,22.00
2006,08,18,13,58,22.00
2006,08,18,13,59,21.90
2006,08,18,14,00,22.00
2006,08,18,14,01,22.00
2006,08,18,14,02,22.10
2006,08,18,14,03,22.20
2006,08,18,14,04,22.30
2006,08,18,14,05,22.20
2006,08,18,14,06,22.20
2006,08,18,14,07,22.20
2006,08,18,14,08,22.20
2006,08,18,14,09,22.20
2006,08,18,14,10,22.20
2006,08,18,14,11,22.10
2006,08,18,14,12,22.00
2006,08,18,14,13,22.00
2006,08,18,14,14,22.20
2006,08,18,14,15,22.40
2006,08,18,14,16,22.60
2006,08,18,14,17,22.80
2006,08,18,14,18,22.80
2006,08,18,14,19,22.80
2006,08,18,14,20,22.90
2006,08,18,14,21,22.90
2006,08,18,14,22,22.80
2006,08,18,14,23,22.70
2006,08,18,14,24,22.60
2006,08,18,14,25,22.50
2006,08,18,14,26,22.40
2006,08,18,14,27,22.30
2006,08,18,14,28,22.20
2006,08,18,14,29,22.00
2006,08,18,14,30,21.90
2006,08,18,14,31,21.80
2006,08,18,14,32,21.60
2006,08,18,14,33,21.60
2006,08,18,14,34,21.60
2006,08,18,14,35,21.60
2006,08,18,14,36,21.60
2006,08,18,14,37,21.70
2006,08,18,14,38,21.80
2006,08,18,14,39,21.80
2006,08,18,14,40,21.90
2006,08,18,14,41,21.90
2006,08,18,14,42,22.00
2006,08,18,14,43,22.20
2006,08,18,14,44,22.30
2006,08,18,14,45,22.40
2006,08,18,14,46,22.50
2006,08,18,14,47,22.40
2006,08,18,14,48,22.40
2006,08,18,14,49,22.50
2006,08,18,14,50,22.60
2006,08,18,14,51,22.60
2006,08,18,14,52,22.60
2006,08,18,14,53,22.50
2006,08,18,14,54,22.50
2006,08,18,14,55,22.50
2006,08,18,14,56,22.50
2006,08,18,14,57,22.40
2006,08,18,14,58,22.40
2006,08,18,14,59,22.30
2006,08,18,15,00,22.30
2006,08,18,15,01,22.40
2006,08,18,15,02,22.40
2006,08,18,15,03,22.40
2006,08,18,15,04,22.30
2006,08,18,15,05,22.20
2006,08,18,15,06,22.20
2006,08,18,15,07,22.20
2006,08,18,15,08,22.10
2006,08,18,15,09,22.10
2006,08,18,15,10,22.20
2006,08,18,15,11,22.20
2006,08,18,15,12,22.30
2006,08,18,15,13,22.30
2006,08,18,15,14,22.30
2006,08,18,15,15,22.30
2006,08,18,15,16,22.30
2006,08,18,15,17,22.20
2006,08,18,15,18,22.20
2006,08,18,15,19,22.20
2006,08,18,15,20,22.20
2006,08,18,15,21,22.20
2006,08,18,15,22,22.30
2006,08,18,15,23,22.50
2006,08,18,15,24,22.70
2006,08,18,15,25,22.80
2006,08,18,15,26,22.90
2006,08,18,15,27,22.90
2006,08,18,15,28,23.00
2006,08,18,15,29,23.00
2006,08,18,15,30,23.00
2006,08,18,15,31,23.10
2006,08,18,15,32,23.20
2006,08,18,15,33,23.20
2006,08,18,15,34,23.30
2006,08,18,15,35,23.10
2006,08,18,15,36,23.00
2006,08,18,15,37,23.00
2006,08,18,15,38,22.90
2006,08,18,15,39,22.90
2006,08,18,15,40,23.00
2006,08,18,15,41,23.00
2006,08,18,15,42,23.10
2006,08,18,15,43,23.10
2006,08,18,15,44,23.10
2006,08,18,15,45,23.10
2006,08,18,15,46,23.10
2006,08,18,15,47,23.00
2006,08,18,15,48,23.00
2006,08,18,15,49,22.80
2006,08,18,15,50,22.90
2006,08,18,15,51,22.90
2006,08,18,15,52,23.00
2006,08,18,15,53,23.00
2006,08,18,15,54,23.00
2006,08,18,15,55,23.00
2006,08,18,15,56,22.90
2006,08,18,15,57,22.90
2006,08,18,15,58,23.00
2006,08,18,15,59,23.00
2006,08,18,16,00,22.90
2006,08,18,16,01,22.90
2006,08,18,16,02,22.90
2006,08,18,16,03,22.90
2006,08,18,16,04,22.90
2006,08,18,16,05,22.90
2006,08,18,16,06,22.90
2006,08,18,16,07,23.00
2006,08,18,16,08,23.10
2006,08,18,16,09,23.10
2006,08,18,16,10,23.10
2006,08,18,16,11,23.10
2006,08,18,16,12,23.30
2006,08,18,16,13,23.40
2006,08,18,16,14,23.50
2006,08,18,16,15,23.60
2006,08,18,16,16,23.70
2006,08,18,16,17,23.80
2006,08,18,16,18,23.80
2006,08,18,16,19,24.00
2006,08,18,16,20,24.10
2006,08,18,16,21,24.10
2006,08,18,16,22,24.20
2006,08,18,16,23,24.20
2006,08,18,16,24,24.30
2006,08,18,16,25,24.30
2006,08,18,16,26,24.30
2006,08,18,16,27,24.20
2006,08,18,16,28,24.20
2006,08,18,16,29,24.30
2006,08,18,16,30,24.40
2006,08,18,16,31,24.40
2006,08,18,16,32,24.50
2006,08,18,16,33,24.50
2006,08,18,16,34,24.50
2006,08,18,16,35,24.50
2006,08,18,16,36,24.40
2006,08,18,16,37,24.30
2006,08,18,16,38,24.30
2006,08,18,16,39,24.30
2006,08,18,16,40,24.30
2006,08,18,16,41,24.30
2006,08,18,16,42,24.40
2006,08,18,16,43,24.50
2006,08,18,16,44,24.50
2006,08,18,16,45,24.50
2006,08,18,16,46,24.60
2006,08,18,16,47,24.60
2006,08,18,16,48,24.60
2006,08,18,16,49,24.50
2006,08,18,16,50,24.40
2006,08,18,16,51,24.50
2006,08,18,16,52,24.40
2006,08,18,16,53,24.40
2006,08,18,16,54,24.40
2006,08,18,16,55,24.40
2006,08,18,16,56,24.30
2006,08,18,16,57,24.30
2006,08,18,16,58,24.30
2006,08,18,16,59,24.40
2006,08,18,17,00,24.40
2006,08,18,17,01,24.50
2006,08,18,17,02,24.50
2006,08,18,17,03,24.50
2006,08,18,17,04,24.40
2006,08,18,17,05,24.50
2006,08,18,17,06,24.50
2006,08,18,17,07,24.50
2006,08,18,17,08,24.50
2006,08,18,17,09,24.50
2006,08,18,17,10,24.40
2006,08,18,17,11,24.30
2006,08,18,17,12,24.30
2006,08,18,17,13,24.30
2006,08,18,17,14,24.30
2006,08,18,17,15,24.40
2006,08,18,17,16,24.40
2006,08,18,17,17,24.40
2006,08,18,17,18,24.40
2006,08,18,17,19,24.50
2006,08,18,17,20,24.50
2006,08,18,17,21,24.60
2006,08,18,17,22,24.60
2006,08,18,17,23,24.50
2006,08,18,17,24,24.50
2006,08,18,17,25,24.50
2006,08,18,17,26,24.50